Delavan, Wisconsin, United States (53115)
Lat: 42.63N, Lon: 88.64W
Wx Zone: WIZ070
Local Info
Past Weather Observations for Today

NOTE: This archive is for the closest National Weather Service station to Delavan. Information may differ from the station used for current weather conditions.

Click here for Long-term Archive

Time Weather Temperature Dewpoint Humidity Pressure Winds Precip Visibility
06:55
Overcast
32°F / 0°C 23°F / -5°C 69% 30.45 in
(1031 mb)
NNW 10.4 mph
(NNW 17 kph)
- 10SM
06:35
Overcast
32°F / 0°C 23°F / -5°C 69% 30.42 in
(1030 mb)
NNW 8.1 mph
(NNW 13 kph)
- 10SM
06:15
Overcast
32°F / 0°C 21°F / -6°C 64% 30.42 in
(1030 mb)
NNW 12.7 mph
(NNW 20 kph)
- 10SM
05:55
Overcast
32°F / 0°C 21°F / -6°C 64% 30.42 in
(1030 mb)
N 10.4 mph
(N 17 kph)
- 10SM
05:35
Overcast
32°F / 0°C 21°F / -6°C 64% 30.42 in
(1030 mb)
N 9.2 mph
(N 15 kph)
- 10SM
05:15
Overcast
32°F / 0°C 21°F / -6°C 64% 30.42 in
(1030 mb)
N 9.2 mph
(N 15 kph)
- 10SM
04:55
Overcast
32°F / 0°C 21°F / -6°C 64% 30.42 in
(1030 mb)
N 10.4 mph
(N 17 kph)
- 10SM
04:35
Overcast
32°F / 0°C 21°F / -6°C 64% 30.42 in
(1030 mb)
N 9.2 mph
(N 15 kph)
- 10SM
04:15
Overcast
32°F / 0°C 21°F / -6°C 64% 30.42 in
(1030 mb)
N 11.5 mph
(N 19 kph)
- 10SM
03:55
Overcast
32°F / 0°C 21°F / -6°C 64% 30.39 in
(1029 mb)
N 12.7 mph
(N 20 kph)
- 10SM
03:35
Overcast
32°F / 0°C 21°F / -6°C 64% 30.39 in
(1029 mb)
N 10.4 mph
(N 17 kph)
- 10SM
03:15
Overcast
32°F / 0°C 21°F / -6°C 64% 30.39 in
(1029 mb)
NNW 9.2 mph
(NNW 15 kph)
- 10SM
02:55
Overcast
32°F / 0°C 21°F / -6°C 64% 30.39 in
(1029 mb)
NNW 11.5 mph
(NNW 19 kph)
- 10SM
02:35
Overcast
32°F / 0°C 21°F / -6°C 64% 30.39 in
(1029 mb)
N 10.4 mph
(N 17 kph)
- 10SM
02:15
Overcast
32°F / 0°C 19°F / -7°C 60% 30.39 in
(1029 mb)
N 9.2 mph
(N 15 kph)
- 10SM
01:55
Overcast
32°F / 0°C 19°F / -7°C 60% 30.39 in
(1029 mb)
N 10.4 mph
(N 17 kph)
- 10SM
01:35
Overcast
32°F / 0°C 19°F / -7°C 60% 30.39 in
(1029 mb)
N 11.5 mph
(N 19 kph)
- 10SM
01:15
Overcast
32°F / 0°C 19°F / -7°C 60% 30.39 in
(1029 mb)
N 8.1 mph
(N 13 kph)
- 10SM
00:55
Overcast
32°F / 0°C 19°F / -7°C 60% 30.39 in
(1029 mb)
N 11.5 mph
(N 19 kph)
- 10SM
00:35
Overcast
32°F / 0°C 19°F / -7°C 60% 30.39 in
(1029 mb)
N 11.5 mph
(N 19 kph)
- 10SM
00:15
Overcast
32°F / 0°C 19°F / -7°C 60% 30.39 in
(1029 mb)
N 13.8 mph
(N 22 kph)
- 10SM
Time Weather Temperature Dewpoint Humidity Pressure Winds Precip Visibility


Weather for websites

WeatherForYou.com, LLC is not responsible for any damages or problems caused by this service. Current weather conditions are obtained from the closest station including government and personal stations which may have varying degrees of accuracy. Weather forecasts are derived from the NOAA NDFD. Like all things, this site belongs to Jesus Christ... He just trusts me to maintain it. If you have any questions or comments email webmaster@weatherforyou.com

Copyright © 2014, WeatherForYou.com LLC. All rights reserved.